Weather History for KCGI - August, 2013

Change the Weather History Date:

Monday, August 5, 2013

  Actual Average Record
Temperature  
Mean Temperature 69 °F 78 °F  
Max Temperature 72 °F 89 °F 101 °F (1982)
Min Temperature 66 °F 67 °F 56 °F (1986)
Degree Days  
Heating Degree Days 0 0  
Month to date heating degree days 0 0  
Since 1 June heating degree days 0 4  
Since 1 July heating degree days 0 0  
Cooling Degree Days 4 13  
Month to date cooling degree days 46 65  
Year to date cooling degree days 890 951  
Since 1 June cooling degree days 719 799  
Growing Degree Days 19 (Base 50)    
Moisture  
Dew Point 65 °F    
Average Humidity 85    
Maximum Humidity 97    
Minimum Humidity 73    
Precipitation  
Precipitation 0.36 in 0.08 in 3.15 in (1985)
Month to date precipitation 0.36 0.47  
Year to date precipitation 25.06 28.50  
Sea Level Pressure  
Sea Level Pressure 30.01 in    
Wind  
Wind Speed 5 mph (SE)    
Max Wind Speed 10 mph    
Max Gust Speed 14 mph    
Visibility 9 miles    
Events Rain    
T = Trace of Precipitation, MM = Missing Value Source: NWS Daily Summary

Daily Weather History Graph

Daily Weather History Graph

Search for Another Location

Airport or City:

Trip Planner

Search our weather history database for the weather conditions in past years. The results will help you decide how hot, cold, wet, or windy it might be!

Date:

Astronomy

Aug. 05, 2013 Rise Set
Actual Time 6:06 AM CDT 8:01 PM CDT
Civil Twilight 5:38 AM CDT 8:29 PM CDT
Nautical Twilight 5:03 AM CDT 9:04 PM CDT
Astronomical Twilight 4:26 AM CDT 9:41 PM CDT
Moon 5:01 AM CDT (8/5) 7:02 PM CDT (8/5)
Length of Visible Light 14h 51m
Length of Day
13h 54m
Waning Crescent, 1% of the Moon is Illuminated
Aug 5
Waning Crescent
Aug 6
New
Aug 14
First Quarter
Aug 20
Full
Aug 28
Last Quarter

Hourly Weather History & Observations

Time (CDT) Temp. Dew Point Humidity Pressure Visibility Wind Dir Wind Speed Gust Speed Precip Events Conditions
12:53 AM 71.1 °F 62.1 °F 73% 30.08 in 10.0 mi ENE 5.8 mph - N/A   Mostly Cloudy
1:53 AM 71.1 °F 63.0 °F 75% 30.09 in 10.0 mi Calm Calm - N/A   Overcast
2:53 AM 69.1 °F 64.9 °F 87% 30.08 in 10.0 mi Calm Calm - N/A   Mostly Cloudy
3:53 AM 70.0 °F 64.0 °F 81% 30.06 in 10.0 mi Calm Calm - N/A   Overcast
4:53 AM 70.0 °F 63.0 °F 78% 30.04 in 10.0 mi Calm Calm - N/A   Overcast
5:53 AM 69.1 °F 63.0 °F 81% 30.05 in 10.0 mi Calm Calm - N/A   Overcast
6:53 AM 69.1 °F 63.0 °F 81% 30.05 in 10.0 mi ESE 4.6 mph - 0.00 in Rain Light Rain
7:53 AM 69.1 °F 63.0 °F 81% 30.06 in 10.0 mi ESE 4.6 mph - N/A   Overcast
8:53 AM 71.1 °F 63.0 °F 75% 30.05 in 10.0 mi SE 3.5 mph - N/A   Mostly Cloudy
9:53 AM 71.1 °F 64.0 °F 78% 30.06 in 10.0 mi SSW 4.6 mph - N/A   Overcast
10:53 AM 68.0 °F 63.0 °F 84% 30.07 in 10.0 mi SE 4.6 mph - 0.02 in Rain Light Rain
11:53 AM 66.9 °F 64.0 °F 90% 30.05 in 7.0 mi SE 3.5 mph - N/A Rain Rain
12:16 PM 66.2 °F 64.4 °F 94% 30.06 in 1.8 mi Calm Calm - 0.12 in Rain Heavy Rain
12:33 PM 66.2 °F 64.4 °F 94% 30.06 in 3.0 mi ESE 3.5 mph - 0.27 in Rain Heavy Rain
12:40 PM 66.2 °F 64.4 °F 94% 30.06 in 4.0 mi Variable 3.5 mph - 0.29 in Rain Rain
12:53 PM 68.0 °F 64.9 °F 90% 30.05 in 6.0 mi SSE 4.6 mph - 0.31 in Rain Rain
1:26 PM 68.0 °F 64.4 °F 88% 30.04 in 10.0 mi East 4.6 mph - 0.01 in   Overcast
1:53 PM 69.1 °F 66.0 °F 90% 30.02 in 8.0 mi ESE 6.9 mph - 0.01 in Rain Light Rain
2:04 PM 69.8 °F 66.2 °F 88% 30.01 in 7.0 mi SE 8.1 mph - 0.00 in Rain Light Rain
2:36 PM 71.6 °F 66.2 °F 83% 30.01 in 10.0 mi ESE 4.6 mph - 0.00 in   Overcast
2:53 PM 71.1 °F 66.0 °F 84% 30.00 in 10.0 mi ESE 8.1 mph - 0.00 in   Overcast
3:53 PM 71.1 °F 66.0 °F 84% 29.98 in 10.0 mi ESE 8.1 mph - N/A   Overcast
4:53 PM 70.0 °F 66.9 °F 90% 29.96 in 10.0 mi SE 8.1 mph - N/A   Overcast
5:53 PM 72.0 °F 66.9 °F 84% 29.94 in 10.0 mi SE 6.9 mph - N/A   Overcast
6:53 PM 72.0 °F 66.9 °F 84% 29.92 in 10.0 mi ESE 6.9 mph - N/A   Overcast
7:53 PM 71.1 °F 66.9 °F 87% 29.93 in 10.0 mi ESE 8.1 mph - N/A   Overcast
8:53 PM 70.0 °F 68.0 °F 93% 29.94 in 10.0 mi SE 6.9 mph - N/A   Overcast
9:27 PM 69.8 °F 68.0 °F 94% 29.95 in 10.0 mi ESE 4.6 mph - N/A   Overcast
9:38 PM 69.8 °F 68.0 °F 94% 29.95 in 10.0 mi ESE 5.8 mph - N/A   Overcast
9:53 PM 70.0 °F 68.0 °F 93% 29.94 in 10.0 mi SE 4.6 mph - N/A   Overcast
10:16 PM 69.8 °F 68.0 °F 94% 29.94 in 10.0 mi SE 6.9 mph - N/A   Overcast
10:53 PM 71.1 °F 69.1 °F 93% 29.93 in 8.0 mi SSE 5.8 mph - N/A   Overcast
11:53 PM 71.1 °F 70.0 °F 96% 29.92 in 9.0 mi SE 8.1 mph - N/A   Overcast